Location: Pian di Sc�
(43.6333°N, 11.5500°E)
Time: 18:01:24
(UTC+00:00)

Cosmos 1048 Rocket - Pass Details

Date: 07 August 2020
Orbit: 743 x 791 km, 74.0° (Epoch: 17 September)

Event Time Altitude Azimuth Distance (km) Brightness Sun altitude
Rises 03:23:55 0° 339° (NNW) 3,195 7.4 -8.2°
Reaches altitude 10° 03:26:17 10° 339° (NNW) 2,270 6.6 -7.8°
Maximum altitude 03:31:26 88° 253° (WSW) 757 4.0 -7.0°
Drops below altitude 10° 03:36:36 10° 162° (SSE) 2,276 6.3 -6.2°
Sets 03:38:57 0° 162° (SSE) 3,204 7.1 -5.8°
